KJ6HT Weather Reports


Display with metric or nautical units.
time (UTC)temp
F
wind
direction
speed
MPH
gust
MPH
rain 1hr
in
rain 24hr
in
rain mn
in
humidity
%
barometer
mb
20260510210048 87 288 4.0 10.0 0.00 0.00 0.00 36 1010.9
20260510204548 86 311 2.0 10.0 0.00 0.00 0.00 40 1011.0
20260510203036 86 277 6.0 11.0 0.00 0.00 0.00 42 1011.1
20260510201532 86 278 5.0 10.0 0.00 0.00 0.00 45 1011.2
20260510200026 84 267 2.0 9.0 0.00 0.00 0.00 49 1011.3
20260510194524 83 327 3.0 12.0 0.00 0.00 0.00 48 1011.4
20260510193022 82 263 2.0 8.0 0.00 0.00 0.00 47 1011.4
20260510191519 82 309 3.0 9.0 0.00 0.00 0.00 47 1011.5
20260510190016 79 233 3.0 7.0 0.00 0.00 0.00 51 1011.5
20260510184511 77 327 3.0 8.0 0.00 0.00 0.00 57 1011.7
20260510183008 75 320 5.0 9.0 0.00 0.00 0.00 60 1011.8
20260510181506 75 319 3.0 7.0 0.00 0.00 0.00 63 1011.8
20260510180005 73 312 2.0 9.0 0.00 0.00 0.00 68 1012.0
20260510174502 72 319 3.0 7.0 0.00 0.00 0.00 69 1012.1
20260510173058 71 273 2.0 7.0 0.00 0.00 0.00 72 1012.0
20260510171557 70 295 2.0 4.0 0.00 0.00 0.00 72 1012.0
20260510170053 69 293 0.0 2.0 0.00 0.00 0.00 78 1012.0
20260510164547 66 214 0.0 1.0 0.00 0.00 0.00 84 1012.0
20260510163048 63 84 0.0 3.0 0.00 0.00 0.00 89 1012.0
20260510161539 61 284 0.0 2.0 0.00 0.00 0.00 92 1012.1
20260510160041 60 283 0.0 2.0 0.00 0.00 0.00 93 1012.0
20260510154537 60 222 1.0 2.0 0.00 0.00 0.00 94 1012.0
20260510153037 59 129 0.0 2.0 0.00 0.00 0.00 94 1012.1
20260510151540 59 248 0.0 1.0 0.00 0.00 0.00 94 1012.2
20260510150035 59 248 0.0 1.0 0.00 0.00 0.00 94 1012.2
20260510144535 58 248 0.0 2.0 0.00 0.00 0.00 94 1012.2
20260510143034 58 127 1.0 2.0 0.00 0.00 0.00 94 1012.2
20260510141536 58 300 0.0 0.0 0.00 0.00 0.00 94 1012.1
20260510140030 58 302 1.0 2.0 0.00 0.00 0.00 94 1011.9
20260510134530 58 297 0.0 3.0 0.00 0.00 0.00 94 1011.8
20260510133033 58 294 0.0 2.0 0.00 0.00 0.00 94 1011.6
20260510131531 58 294 1.0 2.0 0.00 0.00 0.00 93 1011.5
20260510130026 58 294 1.0 3.0 0.00 0.00 0.00 93 1011.4
20260510124527 58 296 1.0 3.0 0.00 0.00 0.00 93 1011.3
20260510123026 58 285 1.0 3.0 0.00 0.00 0.00 93 1011.2
20260510121525 58 285 1.0 2.0 0.00 0.00 0.00 93 1011.3
20260510120023 58 242 0.0 0.0 0.00 0.00 0.00 93 1011.2
20260510114524 58 292 0.0 2.0 0.00 0.00 0.00 93 1011.2
20260510113021 58 290 0.0 3.0 0.00 0.00 0.00 93 1011.2
20260510111521 58 298 1.0 2.0 0.00 0.00 0.00 93 1011.1
20260510110019 58 290 0.0 0.0 0.00 0.00 0.00 93 1011.2
20260510104518 58 289 0.0 0.0 0.00 0.00 0.00 92 1011.2
20260510103017 58 290 0.0 0.0 0.00 0.00 0.00 92 1011.1
20260510101517 58 290 0.0 0.0 0.00 0.00 0.00 92 1011.1
20260510100015 59 290 0.0 0.0 0.00 0.00 0.00 91 1011.1
20260510094518 59 290 0.0 0.0 0.00 0.00 0.00 91 1011.3
20260510093012 59 290 0.0 0.0 0.00 0.00 0.00 91 1011.2
20260510091511 59 289 0.0 0.0 0.00 0.00 0.00 91 1011.3
20260510090014 58 290 0.0 0.0 0.00 0.00 0.00 90 1011.4
20260510084506 59 290 0.0 0.0 0.00 0.00 0.00 90 1011.3
20260510083005 59 293 0.0 0.0 0.00 0.00 0.00 90 1011.4
20260510081506 59 292 0.0 0.0 0.00 0.00 0.00 89 1011.5
20260510074558 60 293 0.0 0.0 0.00 0.00 0.00 88 1011.6
20260510073056 60 293 0.0 0.0 0.00 0.00 0.00 88 1011.7
20260510071558 61 293 0.0 0.0 0.00 0.00 0.00 87 1011.8
20260510070051 61 293 0.0 0.0 0.00 0.00 0.00 87 1011.8
20260510064551 61 292 0.0 0.0 0.00 0.00 0.00 87 1011.8
20260510063051 61 292 0.0 0.0 0.00 0.00 0.00 86 1011.8
20260510061553 62 292 0.0 0.0 0.00 0.00 0.00 85 1011.8
20260510060049 62 292 0.0 0.0 0.00 0.00 0.00 84 1011.8
20260510054550 63 292 0.0 1.0 0.00 0.00 0.00 83 1011.8
20260510053048 64 293 0.0 1.0 0.00 0.00 0.00 83 1011.8
20260510051547 64 292 0.0 2.0 0.00 0.00 0.00 82 1011.7
20260510050046 65 236 0.0 1.0 0.00 0.00 0.00 81 1011.6
20260510044549 65 245 0.0 2.0 0.00 0.00 0.00 80 1011.5
20260510043053 66 290 1.0 3.0 0.00 0.00 0.00 78 1011.3
20260510041545 67 308 0.0 1.0 0.00 0.00 0.00 76 1011.1
20260510040044 67 285 1.0 5.0 0.00 0.00 0.00 75 1010.9
20260510034543 68 167 0.0 2.0 0.00 0.00 0.00 73 1010.8
20260510033055 69 243 1.0 6.0 0.00 0.00 0.00 72 1010.5
20260510031548 70 285 1.0 4.0 0.00 0.00 0.00 71 1010.4
20260510030041 71 302 1.0 5.0 0.00 0.00 0.00 69 1010.1
20260510024545 72 327 2.0 9.0 0.00 0.00 0.00 67 1009.9
20260510023040 73 259 3.0 9.0 0.00 0.00 0.00 65 1009.6
20260510021539 74 249 2.0 11.0 0.00 0.00 0.00 62 1009.5
20260510020039 75 304 2.0 8.0 0.00 0.00 0.00 60 1009.3
20260510014537 76 294 5.0 10.0 0.00 0.00 0.00 58 1009.2
20260510013037 77 255 4.0 12.0 0.00 0.00 0.00 56 1009.1
20260510011546 79 294 4.0 10.0 0.00 0.00 0.00 54 1009.0
20260510010035 80 290 4.0 13.0 0.00 0.00 0.00 50 1009.0
20260510004534 81 237 6.0 13.0 0.00 0.00 0.00 49 1008.9
20260510003057 82 314 4.0 13.0 0.00 0.00 0.00 47 1008.9
20260510001532 83 298 5.0 13.0 0.00 0.00 0.00 46 1008.8
20260510000030 83 290 5.0 16.0 0.00 0.00 0.00 45 1008.9
20260509234530 84 249 5.0 19.0 0.00 0.00 0.00 45 1008.8
20260509233030 84 308 7.0 15.0 0.00 0.00 0.00 44 1008.8
20260509231540 85 246 4.0 15.0 0.00 0.00 0.00 43 1008.9
20260509230033 86 248 4.0 12.0 0.00 0.00 0.00 42 1009.0
20260509224526 86 267 4.0 12.0 0.00 0.00 0.00 41 1009.1
20260509223028 86 307 4.0 13.0 0.00 0.00 0.00 42 1009.1
20260509221525 86 295 3.0 12.0 0.00 0.00 0.00 41 1009.2
20260509220022 86 257 3.0 13.0 0.00 0.00 0.00 42 1009.4
20260509214521 87 296 5.0 11.0 0.00 0.00 0.00 41 1009.6
20260509213021 86 297 4.0 16.0 0.00 0.00 0.00 43 1009.8